TITAN 3C TRANSTAGE R/B, 3692

Orbit data source: Space-Track

TITAN 3C TRANSTAGE R/B, 3692 is space debris in GEO originally from a launch on Sun, 09 Feb 1969 UTC launched from the Air Force Eastern Test Range (AFETR). Debris objects in space refer to the collection of defunct objects orbiting the Earth. Examples of debris include non-operational satellites, rocket bodies, and fragments generated from explosions, collisions, or faulty payload assembly.

Not visible in the next 10 days
Identifier
3692, 1969-013B
Orbit
GEO
Last TLE update
10 hours ago
Origin
Manufacturer
Martin Marietta
Mission
Spacecraft
Bus & Motor
TRANSTAGE, Unknown motor
Mass
2,028 kg wet, 2,028 kg dry
Launch date (UTC)
1969-02-09 (56 years ago)
Launch vehicle
Unknown
Launch site
Air Force Eastern Test Range (AFETR)
Object type
Payload
Rocket body
Debris
Shape & HBR
Cyl + 2 Nozzle, 4.6 m
Radar Cross Section
14.974 m², Large (>1 m²)

Expand to show TLE details & history

TLE from 10 hours ago
0 TITAN 3C TRANSTAGE R/B
1 03692U 69013B   25183.85230032 -.00000225  00000-0  00000-0 0  9991
2 03692   0.4004  67.6418 0169350  42.1727 117.5266  0.97536777 38919
Epoch: 2025-07-02T20:27Z
TLE epoch observation values (Epoch: 2025-07-02T20:27:18.747Z)
Latitude
0.11777°
Longitude
1.10395°
Altitude
36,918.89 km
Speed
3.022 km/s
True Right ascension
15h 16m 14s
True Declination
0° 07' 04"
Sunlit
Object was in daylight at epoch
Visualization orbit readout
Latitude
-0.35346°
Longitude
138.92238°
Altitude
36,721.178 km
Speed
3.036 km/s
Apparent Right ascension
00h 52m 43s
Apparent Declination
-5° 36' 57"
Sunlit
Object is in daylight
Visualization observer readout
Local Sidereal Time
17:52:56
Azimuth
84.673° E
Elevation
-15.05°
Doppler factor
1
Orbital elements
Apogee altitude
37,299.595 km
Perigee altitude
35,844.866 km
Semi-major axis
42,950.367 km
Eccentricity
0.01694
Inclination
0.4004°
RAAN
67.6418°
Arg. of periapsis
42.1727°
True anomaly
Unknown
Mean anomaly
117.5266°
Eccentric anomaly
Unknown
Mean motion
0.24383 °/min
Orbital period
1,476.42 mins
BSTAR
0
Loading historical data...
3692 neighbors
Loading maneuver chart data...
Loading SW <> Apogee altitude chart data...

TITAN 3C TRANSTAGE R/B Visibility

Observer location: undefined°, undefined°

TITAN 3C TRANSTAGE R/B is likely not visible in the next few days
Span
Click to sort rows by Start time (UTC) header in descending order
Start Az.
Max El. time (UTC)
Max El. Az.
Max El.
End time (UTC)
End Az.
|